Regional Weather Roundup
Issued by NWS Sioux Falls, SD

Home | Current Version | Previous Version | Graphics & Text | Print | Product List | Glossary Off
Versions: 1 2 3 4 5 6 7 8 9 10 11 12 13 14 15 16 17 18 19 20 21 22 23 24 25 26 27 28 29 30 31 32 33 34 35 36 37 38 39 40 41 42 43 44 45 46 47 48 49 50

000
ASUS43 KFSD 231502
RWRFSD

WEATHER ROUNDUP FOR SE SOUTH DAKOTA/SW MINNESOTA/NW IOWA
NATIONAL WEATHER SERVICE SIOUX FALLS SD
1000 AM CDT TUE SEP 23 2014

NOTE: "FAIR" INDICATES FEW OR NO CLOUDS BELOW 12,000 FEET WITH NO
SIGNIFICANT WEATHER AND OR OBSTRUCTIONS TO VISIBILITY.


SDZ038>040-050-052>070-231600-
SOUTHEAST SOUTH DAKOTA

CITY           SKY/WX    TMP DP  RH WIND       PRES   REMARKS
CHAMBERLAIN    CLOUDY    60  55  85 SE14      29.99R
HURON          RAIN      58  56  93 SE15G26   30.03S FOG
MADISON        LGT RAIN  55  55 100 S10G17    30.13S
MITCHELL       RAIN      58  57  97 SE15G25   30.07S FOG
SIOUX FALLS    LGT RAIN  57  55  93 SE8       30.14F
WINNER         CLOUDY    63  56  78 S17G26    29.96R
YANKTON        CLOUDY    57  55  94 SE9       30.12S
$$

MNZ071-072-080-081-089-090-097-098-231600-
SOUTHWEST MINNESOTA

CITY           SKY/WX    TMP DP  RH WIND       PRES   REMARKS
FAIRMONT         N/A     57  50  77 S8        30.22S
JACKSON        CLOUDY    61  52  72 S8        30.21S
LUVERNE        LGT RAIN  55  54  94 SE7       30.17S
MARSHALL       CLOUDY    63  52  67 S14       30.15R
MONTEVIDEO     PTSUNNY   61  52  72 S9        30.15S
PIPESTONE      LGT RAIN  57  54  88 S8        30.16S
REDWOOD FALLS  PTSUNNY   62  52  69 S12       30.18R
TRACY          CLOUDY    60  52  75 S7        30.17R
WINDOM         PTSUNNY   61  54  77 S7        30.19S
WORTHINGTON    CLOUDY    55  52  88 S8        30.20R
$$

IAZ001>003-012>014-020>022-031-032-NEZ013-014-SDZ071-231600-
NORTHWEST IOWA

CITY           SKY/WX    TMP DP  RH WIND       PRES   REMARKS
CHEROKEE       DRIZZLE   58  56  92 S5        30.20R
DENISON        CLOUDY    59  54  82 SE8       30.19S
ESTHERVILLE    CLOUDY    57  52  83 S10       30.21S
LE MARS        CLOUDY    59  55  88 S12       30.17S
ORANGE CITY    LGT RAIN  57  54  88 SE6       30.17S
SHELDON        CLOUDY    55  55 100 SE7       30.17S
SIOUX CITY     LGT RAIN  59  56  89 S7        30.17R
SPENCER        CLOUDY    57  53  86 S9        30.21R
$$

ABBREVIATIONS USED IN REMARKS
   TC - TEMPERATURE IN CELSIUS
  WCI - WIND CHILL INDEX
   HX - HEAT INDEX
  VSB - VISIBILITY




USA.gov is the U.S. government's official web portal to all federal, state and local government web resources and services.